Starlink 3635

operational
NORAD ID: 51981 Int'l Des: 2022-025 Owner: SPXS Country: US Constellation: starlink
LEOCIRCULAR

Über Starlink 3635

Beschreibung wird geladen...

Live-Position

3D-Globus wird geladen...

Nächste Überflüge

Höhenverlauf

Altitude vs Time

uPlot chart will show altitude changes over time

Zweizeiliger Elementsatz

1 51981U 22025AB 25306.16944169 -.00002154 00000-0 -11732-3 0 9992
2 51981 53.2174 251.5838 0001836 61.2469 298.8707 15.08830492201808
Epoch: 2. Nov. 2025 • Age: 44 hours

Aktueller Status

Höhe 541.8 km
Geschwindigkeit 7.60 km/s
Subsatellitenpunkt 34.64°N, 4.73°W
Startdatum 9. März 2022
Alter 3.6 years
Typ internet

Technische Details

Klassifizierung Payload
Masse 297.00 kg
Trockenmasse 275.00 kg
Gesamtmasse 297.00 kg
Länge 0.20 m
Durchmesser 2.80 m
Spannweite 9.00 m
Form Box + pan
Hersteller SPXS
Bus-Typ Starlink
Phasenstatus In Orbit
Besitzer/Staat SPXS/US

Große Konstellationen

Loading constellations...